Theta_e
301 301 302 303 303 311 314 318 319 319 315 305 301 300 301 309 312 312 314 313 310 306 310 309 309 309 309 309 312 311 311 313 314 326 327 326 328 327 328 326 330 329 332 333 332 335 332 330 332 336 334 334 333 334
301 301 302 303 303 311 311 314 317 317 312 304 300 300 302 310 311 312 314 313 312 308 309 312 312 310 309 309 310 310 309 310 311 324 323 324 329 327 326 327 326 330 328 331 332 334 330 329 330 330 332 334 334 335
302 301 301 303 303 310 314 315 316 316 309 302 300 301 306 310 311 312 312 312 310 309 311 311 313 312 312 311 309 310 310 311 309 315 319 324 327 326 327 325 325 326 325 332 331 331 331 329 330 327 329 333 334 334
302 302 301 303 303 308 310 315 315 314 307 302 304 304 309 310 311 312 312 313 312 310 310 313 311 312 311 311 310 310 310 308 309 309 312 315 319 320 323 323 324 325 326 328 330 329 330 330 327 328 330 331 333 333
302 302 301 304 305 310 309 313 314 312 302 300 303 305 310 310 312 311 314 313 312 311 312 312 311 309 306 308 310 310 309 309 309 309 312 315 317 321 323 322 326 326 327 327 330 328 329 328 327 327 328 327 329 329
301 302 302 304 308 312 313 313 314 310 300 301 302 308 310 311 311 313 313 312 313 311 308 311 310 308 307 309 307 309 308 307 308 309 311 312 313 320 320 320 321 322 319 323 328 327 327 327 326 324 325 324 326 329
301 302 302 302 308 312 313 314 310 300 300 302 306 309 311 311 313 314 311 309 309 308 307 308 309 307 307 310 307 306 307 307 308 309 311 313 315 316 317 318 318 317 316 321 325 327 328 326 327 325 325 326 325 324
301 301 302 304 309 312 312 313 301 300 302 303 308 310 310 313 312 313 313 312 307 307 306 308 309 310 310 313 311 307 307 307 308 311 313 316 313 315 319 318 318 316 315 322 325 327 326 326 325 324 326 323 320 320
301 302 304 306 308 311 312 310 302 301 302 310 310 312 312 312 313 313 312 311 311 307 309 307 312 313 311 309 314 311 309 313 311 315 316 315 317 317 318 319 319 317 321 324 324 326 326 325 325 327 323 321 319 320
301 303 307 307 310 311 309 300 301 304 311 313 313 310 312 313 312 309 308 308 308 308 308 307 305 311 308 309 312 315 315 316 317 316 313 316 317 316 316 317 315 316 321 323 325 324 323 324 325 328 321 320 320 319
301 305 308 309 310 309 303 301 309 310 310 310 309 312 311 311 308 307 307 306 306 307 305 306 304 308 306 311 311 314 320 320 321 320 320 319 319 320 322 320 317 316 318 323 324 320 321 323 325 326 322 320 321 321
304 306 308 309 310 309 304 302 310 310 309 310 311 309 309 308 307 309 309 308 308 311 309 309 310 307 309 307 312 316 323 323 324 320 325 325 324 322 323 324 323 322 323 323 321 319 320 325 326 324 322 321 321 321
306 307 308 309 303 299 300 309 310 309 311 309 309 309 308 307 308 310 311 312 313 312 312 311 313 310 308 307 311 321 322 324 320 323 325 324 320 322 323 323 322 321 322 322 322 321 321 324 324 323 323 322 322 323
308 308 308 308 304 300 301 310 306 310 310 311 311 308 311 311 311 311 313 313 313 312 313 313 312 311 309 313 315 323 322 321 322 323 323 323 319 322 323 324 325 325 324 324 324 324 324 324 324 324 324 322 321 320
307 308 307 301 299 301 309 310 307 309 310 311 311 312 311 310 310 311 311 311 312 312 312 312 311 310 313 318 321 321 321 322 323 321 322 319 321 321 321 323 324 324 323 324 323 323 322 321 320 320 320 320 319 319
306 303 301 301 300 299 304 307 309 310 309 310 310 312 311 312 313 312 311 312 312 312 312 310 312 313 316 320 320 321 320 321 322 321 318 321 320 317 319 322 322 322 322 318 316 318 318 318 318 318 318 317 317 319
304 302 300 300 302 305 306 308 308 308 309 310 310 310 310 311 312 312 311 311 312 313 316 313 313 314 316 318 320 320 320 322 321 319 316 321 320 317 315 319 321 321 318 318 318 319 319 318 318 318 318 318 318 317
303 303 303 301 303 306 305 307 307 307 308 308 309 308 309 309 310 310 309 312 313 314 315 316 314 316 317 317 319 319 320 318 318 319 317 316 315 316 318 320 320 319 319 319 320 320 320 320 320 320 320 320 320 320
299 301 302 302 305 305 306 306 306 307 307 307 307 307 307 307 307 308 309 310 314 313 314 315 316 316 318 319 319 318 317 317 318 318 318 316 315 315 319 320 320 320 320 320 320 321 321 319 319 318 318 319 318 317
300 305 305 305 306 305 305 305 306 306 308 309 308 308 307 307 307 308 309 310 314 313 315 316 315 316 316 314 313 315 316 317 318 319 319 317 316 318 319 319 320 320 320 320 320 320 320 319 318 317 317 318 318 319
305 306 305 304 305 305 305 304 305 305 305 307 307 308 309 310 310 310 310 311 314 314 313 312 311 311 312 313 314 317 317 317 318 318 317 318 319 317 317 317 319 320 320 320 320 320 317 315 314 315 315 316 317 317
305 304 304 304 304 305 306 305 306 306 306 307 307 308 312 313 313 312 313 315 316 314 313 312 312 313 313 315 315 315 315 315 316 316 317 318 319 319 319 319 319 318 317 317 319 318 315 315 313 315 315 315 315 317
304 303 303 302 304 305 305 307 309 308 310 310 310 312 312 313 313 313 315 312 312 313 313 313 313 314 315 314 314 315 315 316 315 318 318 318 318 319 317 317 318 316 315 315 315 316 316 315 315 314 315 315 315 316
302 301 302 303 304 305 306 308 308 309 309 311 312 312 312 314 313 314 315 314 313 313 314 314 314 314 314 313 314 313 314 315 316 316 317 318 318 317 316 317 318 318 317 317 317 316 316 317 317 316 316 316 316 316
303 303 303 304 305 307 308 310 310 311 311 311 312 313 315 314 315 315 314 314 314 314 315 315 315 314 313 314 314 316 317 317 318 317 317 318 318 317 317 317 317 317 317 317 317 317 317 316 315 315 315 315 315 316
301 304 304 306 307 309 310 311 311 311 311 311 312 314 314 314 314 313 313 314 315 316 316 316 315 315 314 315 317 316 317 317 317 317 317 317 317 317 317 317 316 316 316 315 316 316 316 316 315 315 316 316 316 315
303 304 305 305 307 309 311 311 309 311 312 313 314 313 312 311 310 312 314 316 317 316 315 315 316 316 316 316 314 315 317 317 317 317 317 316 315 315 314 314 314 314 314 314 314 314 315 315 315 315 315 315 316 316
303 304 306 306 308 309 310 312 312 312 313 311 311 312 312 309 316 316 317 317 317 317 317 317 318 318 317 317 317 317 317 317 316 315 315 315 314 313 313 311 310 310 311 312 312 312 313 313 314 314 315 315 315 315
304 305 306 308 308 308 308 310 310 310 308 308 310 312 314 316 316 316 316 316 316 317 317 317 317 317 317 316 316 316 316 316 316 316 315 313 311 310 309 308 308 308 308 309 309 310 310 310 310 311 312 312 313 313
306 306 308 306 306 307 306 307 309 310 310 310 311 310 310 311 312 316 316 315 315 316 316 316 317 316 316 316 315 314 313 312 312 311 311 310 308 307 307 306 306 306 306 306 305 305 305 304 304 305 305 305 305 303
307 306 308 307 307 310 308 310 312 312 313 312 310 311 310 309 309 311 313 313 314 315 314 313 313 312 312 312 311 310 310 309 309 308 307 307 306 306 305 305 304 303 303 302 302 301 301 301 301 301 301 300 300 300
308 310 312 315 315 315 315 315 315 315 314 314 313 311 310 310 312 310 308 310 311 311 310 310 310 310 309 309 309 309 308 308 307 306 306 305 305 305 304 304 303 302 301 301 301 300 300 300 300 299 299 299 298 298
314 315 315 316 316 315 314 314 314 313 313 313 313 313 313 312 310 307 308 309 309 308 308 308 308 308 308 309 308 307 307 306 306 305 305 305 304 304 303 302 302 301 300 300 300 299 299 298 298 298 297 297 296 295
Wind_Speed
23 23 22 23 24 23 22 20 17 16 15 13 12 12 12 11 10 9 8 7 9 5 14 17 14 10 7 4 3 4 5 1 2 0 1 1 2 2 3 3 4 3 4 3 3 3 3 11 4 4 3 4 4 4
23 23 22 22 24 22 22 22 20 17 16 13 12 13 12 11 11 10 9 8 9 13 12 18 22 24 24 18 10 4 2 3 3 1 1 1 3 2 1 3 2 1 2 3 3 4 3 6 3 5 4 4 6 8
21 23 21 22 22 22 20 19 19 18 16 14 12 13 13 13 13 11 10 9 9 10 18 12 7 5 7 15 24 12 6 7 4 2 2 1 3 1 2 2 4 2 4 3 4 3 3 4 2 10 4 8 8 10
21 22 20 21 21 21 23 19 18 18 15 13 12 12 14 14 13 12 11 9 8 6 5 5 2 14 16 13 11 22 11 3 3 2 2 2 3 3 3 4 3 3 2 3 6 8 5 3 5 5 9 9 7 7
21 21 20 20 22 20 21 21 19 16 17 12 12 12 13 14 12 11 11 11 10 6 4 12 23 3 6 14 20 16 21 19 7 4 2 3 3 2 2 3 4 5 1 3 3 6 1 0 3 4 6 7 5 5
20 20 20 18 23 20 19 19 18 16 14 15 13 12 15 16 11 9 5 9 13 13 4 4 7 2 5 2 13 18 19 14 8 5 4 4 5 3 3 3 7 6 9 9 4 4 4 3 4 2 4 6 5 3
20 20 20 21 23 18 18 20 18 17 15 13 15 16 16 15 13 7 2 1 5 7 3 6 6 3 4 2 9 12 15 8 8 5 6 5 4 6 3 11 18 19 17 11 9 4 3 3 2 4 3 6 5 7
19 20 19 24 22 19 19 19 18 16 13 13 17 19 17 11 8 10 10 7 4 2 3 3 4 5 2 3 5 8 8 9 9 5 4 4 3 4 5 12 18 13 13 9 9 7 2 0 2 1 4 4 6 7
18 18 21 26 26 21 22 22 21 17 17 21 22 16 14 9 6 7 6 5 11 5 3 3 3 1 5 0 3 5 6 4 5 4 3 4 3 6 10 14 11 9 6 2 12 9 5 3 3 5 4 4 5 6
20 20 24 24 22 22 26 24 24 22 23 22 22 7 5 8 6 7 6 4 6 4 6 5 3 3 3 2 2 3 4 2 3 2 2 3 5 18 19 18 18 12 8 6 8 5 7 9 9 8 5 3 3 4
18 31 23 21 18 22 31 29 29 28 26 20 8 4 7 11 8 4 3 4 4 4 6 6 8 4 2 2 2 0 0 1 3 3 2 3 3 7 17 14 16 19 13 10 4 2 4 3 8 9 5 3 1 1
22 28 26 23 25 24 26 31 33 33 24 14 10 14 13 4 2 3 3 2 4 3 5 4 4 6 3 3 2 1 2 2 2 2 3 2 6 19 19 13 4 9 10 6 5 4 3 4 4 6 4 3 2 4
28 25 26 26 26 28 31 34 33 25 21 20 7 6 5 4 2 5 6 3 3 5 5 4 2 3 3 3 3 2 3 2 1 2 1 3 17 18 16 7 3 5 4 4 5 5 3 3 3 4 3 5 6 7
18 25 26 25 29 29 28 33 29 26 20 4 6 4 4 4 4 4 3 2 2 3 3 5 2 2 2 3 1 3 1 2 2 2 5 5 21 16 14 11 4 8 7 8 9 8 7 5 2 0 3 5 8 10
25 23 27 33 32 28 32 32 27 28 4 4 4 4 5 3 4 3 5 6 6 6 5 1 2 1 1 2 1 2 2 1 4 3 3 14 10 19 20 18 9 10 8 8 7 6 5 4 3 3 4 5 8 8
24 26 28 32 32 30 32 29 28 8 2 2 1 2 1 2 1 1 2 3 1 2 2 1 1 1 1 2 2 1 1 3 2 2 6 4 7 10 19 19 10 5 6 5 5 6 5 4 4 4 5 7 7 5
29 27 34 36 32 28 29 19 11 2 1 0 2 3 2 2 2 2 3 3 7 1 1 1 1 2 1 0 2 3 2 1 3 5 6 4 3 4 7 11 10 6 1 3 4 4 4 3 3 4 5 7 8 8
30 33 30 30 26 25 24 8 5 4 3 2 2 2 2 3 4 2 5 9 4 1 0 2 2 1 1 1 1 1 3 4 6 8 7 8 9 7 5 3 9 4 3 3 4 5 7 9 11 9 8 9 11 11
35 30 31 34 29 13 5 4 1 2 1 0 1 3 2 4 5 5 5 7 4 3 3 2 2 1 1 1 1 2 4 5 7 9 9 12 9 9 6 8 6 7 6 6 6 8 8 7 8 7 8 10 14 16
33 25 25 21 21 6 4 3 4 3 2 1 2 2 2 3 6 5 5 4 3 2 1 2 1 0 2 3 7 7 5 6 7 8 11 7 2 5 6 2 1 4 7 7 7 7 6 7 9 9 9 12 13 13
26 30 21 16 8 6 5 4 3 2 2 1 1 0 2 4 4 3 3 2 1 1 1 3 4 7 9 9 7 5 5 5 5 7 9 8 4 6 6 6 3 7 6 6 6 3 4 8 11 12 13 15 16 15
27 21 20 9 4 3 4 3 4 3 1 1 1 1 1 0 0 0 1 2 3 5 7 8 10 9 10 6 4 5 5 5 7 10 11 9 10 8 4 4 2 2 3 5 4 3 5 7 11 11 12 14 16 15
21 17 6 4 3 4 3 3 2 1 1 1 1 1 1 1 0 1 2 3 4 4 6 9 8 8 7 6 6 7 5 5 6 4 6 5 6 2 2 4 5 3 4 4 3 5 6 7 7 10 12 12 11 10
13 3 3 4 4 2 2 1 1 1 0 1 1 1 1 1 1 1 2 2 2 7 7 7 8 9 10 9 7 6 3 5 1 2 5 6 1 3 8 9 5 4 7 11 7 6 8 8 10 15 17 16 14 12
2 3 3 2 1 0 2 1 1 1 1 1 1 1 1 0 1 1 1 3 5 8 7 5 4 4 4 1 4 2 4 10 8 5 3 3 3 5 6 6 7 7 7 7 8 9 10 13 14 15 14 16 16 14
3 1 2 2 3 1 2 2 3 2 1 1 1 1 0 2 3 2 3 6 9 13 10 2 4 4 2 7 14 10 5 6 8 8 8 7 6 6 7 8 8 7 10 12 13 14 14 14 13 13 14 15 15 13
2 2 0 1 1 1 1 1 1 1 2 1 1 2 2 2 1 4 6 5 10 6 12 12 9 8 11 9 12 7 4 5 7 6 6 6 9 10 11 10 11 12 12 13 13 13 14 13 14 16 18 17 14 14
1 2 2 2 1 1 2 2 2 2 1 2 2 2 1 3 3 1 4 8 8 9 12 12 13 12 14 13 8 7 10 8 6 6 8 6 9 11 12 14 14 13 12 12 12 12 13 13 13 13 13 12 11 9
1 3 2 2 2 2 2 2 2 2 2 3 2 2 2 8 10 11 11 12 15 16 18 17 16 16 14 11 11 9 11 8 6 6 6 7 9 13 14 15 14 13 13 12 12 12 11 11 10 9 9 9 9 10
1 5 1 2 0 1 2 5 4 4 2 1 5 25 33 29 25 17 16 20 22 22 20 19 16 15 16 14 13 13 12 12 11 10 8 9 11 12 13 14 14 15 15 15 13 12 12 12 10 9 9 9 10 11
3 7 4 7 5 4 10 7 5 2 7 19 24 20 18 20 30 25 21 16 17 13 14 16 14 14 13 12 11 10 11 11 11 11 12 12 12 12 14 15 15 15 15 13 12 11 11 11 10 10 11 12 13 13
1 1 4 3 6 14 18 14 17 17 16 12 8 9 10 9 9 15 24 14 12 14 14 14 14 14 13 12 11 11 11 10 11 11 10 11 12 13 15 16 16 15 14 13 12 12 12 12 12 12 12 13 14 14
7 14 15 11 5 5 9 7 6 7 11 8 9 10 9 7 6 11 16 15 10 11 12 12 11 10 10 11 11 11 11 10 9 8 9 11 13 15 17 18 18 16 13 11 10 11 12 12 12 12 13 13 14 14
Wind_Direction
269 265 259 250 243 230 236 251 251 248 243 245 247 254 248 219 215 231 243 237 229 246 269 257 244 238 240 230 249 328 297 159 288 294 306 355 273 17 289 289 329 314 328 328 282 259 223 14 113 245 38 33 44 238
271 265 259 248 239 227 232 244 247 245 237 240 240 250 236 210 205 221 239 261 264 243 263 280 274 260 253 248 245 268 303 318 285 295 249 274 258 243 312 330 186 294 312 303 256 332 352 340 321 330 329 47 93 118
267 269 259 246 235 220 224 235 239 239 228 231 238 238 209 198 199 216 241 254 266 286 297 279 288 257 274 247 226 236 247 217 241 252 324 321 279 238 311 324 295 250 175 241 290 154 328 346 316 64 63 89 85 94
265 266 260 241 222 222 218 232 238 230 223 228 231 225 192 192 200 217 238 249 258 274 284 282 260 298 293 245 242 219 220 189 236 4 295 283 270 205 303 307 272 339 181 315 276 310 303 63 70 53 71 96 92 102
262 261 262 230 212 213 213 225 235 226 218 210 210 200 186 185 201 219 246 252 252 229 287 290 301 270 313 218 214 215 215 230 267 300 256 246 255 231 232 273 250 198 325 307 306 334 33 184 195 28 66 69 96 115
258 256 262 229 203 210 217 217 230 216 209 203 205 183 184 188 190 221 266 252 239 237 275 291 309 278 320 287 205 212 211 213 213 217 233 245 239 245 287 279 258 244 284 265 265 315 204 43 152 57 67 35 52 74
252 251 257 216 200 205 204 214 204 191 196 189 177 173 184 186 198 198 223 284 177 180 259 293 291 275 309 202 170 183 193 200 200 223 233 243 219 193 253 260 274 296 302 275 246 215 225 90 92 50 67 69 58 32
246 244 248 196 195 200 211 206 185 185 178 181 168 164 180 189 208 237 244 244 203 313 260 277 279 304 334 197 155 169 167 189 210 239 238 226 161 210 251 243 257 283 287 234 225 206 219 155 55 149 133 78 31 28
240 250 203 191 191 204 205 191 176 174 172 162 156 170 160 189 220 214 216 209 221 242 297 242 274 304 329 157 140 164 178 183 184 231 225 195 186 225 237 242 252 303 230 213 203 204 239 232 207 164 150 74 44 36
239 203 184 193 203 207 187 167 166 157 164 160 159 148 176 178 194 152 148 178 186 216 227 253 240 263 308 330 143 193 195 223 220 166 161 227 248 248 250 257 270 274 250 246 176 205 224 245 214 191 175 96 45 50
221 182 183 180 197 190 168 163 159 166 162 156 155 134 147 147 151 186 196 202 179 229 214 235 225 270 272 281 344 318 182 207 240 130 242 221 274 357 338 304 267 256 238 187 212 284 275 243 200 196 177 134 48 24
188 179 185 190 183 167 164 165 165 167 165 156 136 130 136 155 178 213 205 178 217 240 201 210 228 221 245 226 270 211 275 214 227 136 233 210 356 337 348 355 28 149 176 208 242 245 223 199 187 199 184 206 291 303
172 177 188 176 165 165 167 165 166 160 148 153 151 150 160 151 188 213 191 198 226 204 203 205 268 198 207 219 251 251 240 255 266 216 8 65 336 342 359 16 52 130 157 133 83 77 112 154 176 175 239 249 285 304
175 170 172 176 167 164 164 165 170 166 158 157 164 134 205 179 229 205 208 219 234 231 212 304 231 214 177 200 251 265 44 272 266 16 18 9 344 348 6 3 345 54 84 102 99 99 103 109 114 321 294 300 315 323
168 172 171 162 158 159 161 166 170 170 174 171 152 189 200 225 252 242 253 274 268 269 274 221 172 212 141 243 225 293 232 64 41 17 308 344 7 24 21 17 28 20 26 67 74 62 44 21 356 346 347 343 340 343
164 158 158 156 159 168 168 173 179 157 129 157 167 147 168 233 180 207 253 271 18 2 130 154 132 170 133 315 243 8 338 57 136 249 306 310 359 359 337 340 345 326 6 20 57 66 61 62 66 48 23 12 3 350
156 152 157 156 150 161 173 156 161 82 288 256 178 200 240 298 261 284 333 6 349 115 164 173 168 53 127 119 34 352 52 3 255 288 318 246 237 8 326 285 312 311 90 68 39 31 27 15 342 339 348 348 343 331
144 143 150 153 161 154 154 107 152 176 166 186 174 141 203 254 294 1 14 9 41 54 45 73 120 155 57 72 98 100 260 274 287 270 301 305 244 216 181 298 314 270 253 282 295 322 331 325 321 313 302 309 321 316
141 144 152 158 153 106 95 144 88 118 154 91 243 255 276 290 308 338 8 21 56 62 111 71 10 39 75 204 323 308 308 321 322 324 323 325 254 236 249 298 251 247 269 289 296 306 308 317 337 337 334 321 317 314
138 137 148 120 143 79 101 119 158 121 146 180 243 285 290 291 302 318 337 30 62 61 119 154 230 233 236 324 319 304 308 323 338 4 351 2 59 255 283 291 310 281 276 284 302 318 315 327 334 331 329 327 324 323
142 139 129 138 109 74 89 127 135 151 135 163 64 149 298 295 285 317 331 352 120 222 240 232 253 302 291 302 308 292 304 317 299 322 338 311 326 66 65 103 251 292 297 293 285 299 351 354 357 350 348 341 331 316
124 129 136 105 69 79 86 89 105 117 89 44 352 214 265 228 250 251 271 223 229 237 232 249 271 283 283 292 287 302 292 287 317 313 325 317 298 300 16 42 46 47 12 357 4 12 4 360 360 354 346 343 343 336
126 126 115 55 71 54 67 86 82 93 40 53 316 219 144 120 130 236 257 240 254 258 277 278 272 265 268 282 307 314 281 288 332 330 355 315 325 92 53 9 16 79 59 350 340 312 321 330 326 329 321 319 327 335
127 85 49 45 44 76 92 91 76 47 36 197 204 160 111 54 318 267 269 262 260 307 302 279 263 262 272 283 292 314 278 275 291 188 305 293 243 333 2 16 6 324 298 298 305 314 307 312 316 313 315 314 309 300
93 43 75 57 72 78 102 123 133 172 135 162 146 114 111 281 240 246 289 290 306 335 336 300 250 260 222 236 337 62 42 19 141 163 311 45 44 37 23 5 354 344 342 337 323 318 318 317 317 311 315 322 321 307
82 152 171 186 135 200 142 148 183 172 143 110 67 8 350 37 8 337 327 325 325 339 359 337 217 221 173 93 100 116 159 47 91 97 88 75 58 38 19 6 360 357 343 332 324 318 314 313 309 314 325 331 329 315
109 139 254 156 329 9 214 140 90 75 74 58 97 45 45 64 309 264 281 348 350 49 96 103 102 108 124 147 148 152 7 66 84 89 72 62 58 47 36 21 7 357 351 348 346 341 330 319 309 306 306 310 317 306
97 99 104 124 110 67 25 53 75 67 70 15 45 73 259 195 184 273 333 28 38 67 93 112 99 112 125 122 115 94 89 82 82 87 90 88 39 25 13 3 358 350 345 339 332 323 319 318 317 319 319 317 317 321
107 156 117 133 82 66 53 51 82 77 82 76 322 309 310 64 63 69 72 67 79 90 86 92 94 94 91 101 109 93 97 92 87 73 57 38 22 13 8 4 359 0 5 3 355 351 348 344 340 334 330 328 327 326
137 164 76 78 71 237 207 175 147 170 165 168 54 86 75 69 65 78 85 77 71 74 83 85 87 86 83 72 71 74 67 54 49 47 41 29 17 7 6 4 358 353 348 344 341 339 334 337 337 337 342 344 345 345
156 189 214 185 225 212 208 191 168 226 110 115 96 89 91 80 69 66 58 76 89 86 78 75 65 60 61 60 57 51 47 39 29 20 16 17 17 13 6 360 359 359 1 4 8 9 9 9 12 11 6 2 356 355
145 298 12 66 68 101 92 75 83 89 92 95 84 91 85 72 63 28 33 51 67 71 66 63 58 56 46 40 35 28 18 9 6 10 13 13 9 8 7 9 12 13 13 12 14 16 13 17 16 14 10 7 5 4
87 93 96 93 71 68 67 73 61 56 61 58 44 51 51 65 67 27 26 30 52 57 54 50 45 35 21 10 3 356 354 356 1 359 359 0 3 4 5 6 5 5 9 12 15 16 17 17 18 17 16 14 11 10